Time_in_sec,Mx,My,Mz
1312470749.04852533,-0.81189620,0.25925705,-0.62532192
1312470749.09529233,-0.81388748,0.25633547,-0.62460846
1312470749.14728808,-0.81045848,0.25950882,-0.62645060
1312470749.19587660,-0.81332076,0.25734568,-0.62418002
1312470749.24430251,-0.81111395,0.25838816,-0.62836200
1312470749.29622436,-0.81288296,0.25802287,-0.62819260
1312470749.34829903,-0.81078589,0.25980169,-0.62956351
1312470749.39648247,-0.81322122,0.25788596,-0.62700129
1312470749.44731045,-0.81273317,0.25750905,-0.62804568
1312470749.49529815,-0.81200761,0.25685647,-0.62746114
1312470749.54738355,-0.81176907,0.25940964,-0.62773538
1312470749.59540677,-0.81360430,0.25826749,-0.62648857
1312470749.64730620,-0.81346565,0.25915796,-0.62635285
1312470749.69532013,-0.81255168,0.25813639,-0.62723333
1312470749.74728394,-0.81224501,0.26019138,-0.62870973
1312470749.79541850,-0.81265169,0.25841048,-0.62885427
1312470749.84742308,-0.81140321,0.25722212,-0.62648797
1312470749.89530706,-0.81252003,0.25825781,-0.62669474
1312470749.94834614,-0.81207174,0.25980052,-0.62815911
1312470749.99536276,-0.81218487,0.25877771,-0.62788910
1312470750.04869699,-0.81272811,0.25687075,-0.62804055
1312470750.09534574,-0.81238246,0.25825620,-0.62668675
1312470750.14736676,-0.81189656,0.26109114,-0.62963736
1312470750.19534898,-0.81240165,0.25772527,-0.62480193
1312470750.24730444,-0.81312346,0.25776452,-0.62766683
1312470750.29543090,-0.81217164,0.25813782,-0.62774909
1312470750.34732580,-0.81139004,0.25953874,-0.62825215
1312470750.39646387,-0.81231213,0.25658563,-0.62572914
1312470750.44843602,-0.81221431,0.25748393,-0.62626797
1312470750.49541879,-0.81227553,0.25800553,-0.62721640
1312470750.54468942,-0.81280160,0.25790456,-0.62912798
1312470750.59536552,-0.81203002,0.25762558,-0.62773705
1312470750.64842510,-0.81235605,0.25595671,-0.62653351
1312470750.69529247,-0.81297159,0.25699538,-0.62751788
1312470750.74844527,-0.81170577,0.25965247,-0.62665814
1312470750.79646921,-0.81280941,0.25902852,-0.62685168
1312470750.84844613,-0.81327599,0.25876400,-0.62553239
1312470750.89542770,-0.81218064,0.25735000,-0.62572730
1312470750.94495583,-0.81194562,0.26008078,-0.63057357
1312470750.99530888,-0.81373477,0.25737545,-0.62648940
1312470751.04433155,-0.81095368,0.25873986,-0.62566686
1312470751.09536409,-0.81173629,0.25746661,-0.62516481
1312470751.14743757,-0.81110573,0.25940633,-0.62810034
1312470751.19531989,-0.81240976,0.25874656,-0.62481004
1312470751.24434304,-0.81234491,0.25852868,-0.62829977
1312470751.29533863,-0.81199425,0.25825608,-0.62706763
1312470751.34455752,-0.81248856,0.25929624,-0.62831378
1312470751.39631152,-0.81252837,0.25917640,-0.62898731
1312470751.44728160,-0.81321716,0.25737530,-0.62699723
1312470751.49529076,-0.81158543,0.25784487,-0.62489009
1312470751.54728222,-0.81118822,0.25863257,-0.62729275
1312470751.59632230,-0.81376433,0.25801846,-0.62689924
1312470751.64504981,-0.81019229,0.25871778,-0.62441289
1312470751.69532371,-0.81196874,0.25812373,-0.62666184
1312470751.74522924,-0.81066370,0.26263207,-0.63172853
1312470751.79530716,-0.81215942,0.25762561,-0.62761009
1312470751.84732723,-0.81242847,0.25686285,-0.62761992
1312470751.89529252,-0.81261498,0.25789356,-0.62831056
1312470751.94730067,-0.81242228,0.25813636,-0.62736028
1312470751.99539590,-0.81289321,0.25726002,-0.62845629
1312470752.04891205,-0.81266701,0.25828594,-0.62912309
1312470752.09568858,-0.81353718,0.25789699,-0.62769175
1312470752.14450884,-0.81182826,0.25967592,-0.62868178
1312470752.19533730,-0.81239283,0.25943014,-0.62898141
1312470752.24743676,-0.81234390,0.25840101,-0.62829870
1312470752.29626727,-0.81175584,0.25876978,-0.62759542
1312470752.34732437,-0.81354338,0.26059973,-0.62972879
1312470752.39637470,-0.81363708,0.25623429,-0.62728173
1312470752.44842958,-0.81375235,0.25740358,-0.62904471
1312470752.49649334,-0.81072676,0.25851569,-0.62874389
1312470752.54834914,-0.81179380,0.25931165,-0.63042462
1312470752.59643102,-0.81230110,0.25711814,-0.62774891
1312470752.64729476,-0.81357515,0.25843886,-0.63052094
1312470752.69629312,-0.81324393,0.25753263,-0.62968844
1312470752.74738765,-0.81101847,0.25841933,-0.63131410
1312470752.79642653,-0.81375849,0.25714982,-0.62917757
1312470752.84747696,-0.81378698,0.25868487,-0.62945962
1312470752.89647889,-0.81275797,0.25741106,-0.63073486
1312470752.94736409,-0.81183672,0.25855505,-0.63122797
1312470752.99541092,-0.81314921,0.25779417,-0.63035709
1312470753.04831815,-0.81272125,0.25587443,-0.63031793
1312470753.09635139,-0.81303495,0.25675255,-0.62859511
1312470753.14855552,-0.81331640,0.25741905,-0.63090163
1312470753.19580412,-0.81433821,0.25586244,-0.62758833
1312470753.24733615,-0.81219530,0.25893191,-0.63031054
1312470753.29606152,-0.81132495,0.25942355,-0.62945735
1312470753.34485722,-0.81122023,0.26034525,-0.63214678
1312470753.39534092,-0.81310004,0.25584802,-0.62751669
1312470753.44730163,-0.81414264,0.25663927,-0.62879270
1312470753.49530768,-0.81222373,0.25751048,-0.62868840
1312470753.54460049,-0.81211698,0.25817683,-0.63137573
1312470753.59630847,-0.81395727,0.25767300,-0.63013399
1312470753.64844775,-0.81357092,0.25701118,-0.62835914
1312470753.69641638,-0.81238478,0.25738910,-0.62910002
1312470753.74738050,-0.81289244,0.25804943,-0.63061303
1312470753.79553723,-0.81232095,0.25831863,-0.63246393
1312470753.84741306,-0.81400704,0.25791273,-0.62865996
1312470753.89645600,-0.81340301,0.25613621,-0.63022482
1312470753.94844437,-0.81260300,0.25829840,-0.63032931
1312470753.99645281,-0.81328374,0.25741279,-0.63036197
1312470754.04729438,-0.81322062,0.25857267,-0.63144243
1312470754.09642482,-0.81446171,0.25601354,-0.62961298
1312470754.14726472,-0.81221086,0.25972444,-0.63273704
1312470754.19534302,-0.81330222,0.25563177,-0.63088733
1312470754.24442267,-0.81335312,0.25793594,-0.63144529
1312470754.29531384,-0.81169713,0.25829813,-0.63121796
1312470754.34731722,-0.81341434,0.25845754,-0.63239372
1312470754.39530349,-0.81435549,0.25701296,-0.62773240
1312470754.44834328,-0.81094319,0.25804725,-0.63238233
1312470754.49561954,-0.81324214,0.25717464,-0.63197088
1312470754.54445934,-0.81112134,0.25815937,-0.63078034
1312470754.59536004,-0.81176543,0.25971335,-0.63217348
1312470754.64430618,-0.81327564,0.25639150,-0.63035381
1312470754.69531846,-0.81399721,0.25551370,-0.63106102
1312470754.74833250,-0.81148940,0.25754303,-0.63241011
1312470754.79529190,-0.81148237,0.25562966,-0.63252974
1312470754.84458089,-0.81152713,0.25818759,-0.63295484
1312470754.89530754,-0.81214863,0.25805545,-0.63191432
1312470754.94428897,-0.81265026,0.26090631,-0.63532537
1312470754.99643087,-0.81387681,0.25870207,-0.63094360
1312470755.04443645,-0.81227297,0.25741717,-0.63178229
1312470755.09544253,-0.81242591,0.25729424,-0.63205904
1312470755.14731741,-0.81343883,0.25846222,-0.63279849
1312470755.19541001,-0.81324416,0.25742996,-0.63197291
1312470755.24844074,-0.81120807,0.25881332,-0.63213456
1312470755.29584885,-0.81302613,0.25845742,-0.63277459
1312470755.35129523,-0.81162304,0.25897077,-0.63444495
1312470755.39534020,-0.81289083,0.25860846,-0.63505316
1312470755.44728756,-0.81295276,0.25640389,-0.63181394
1312470755.49530363,-0.81107491,0.25718021,-0.63466865
1312470755.54741693,-0.81264627,0.25937593,-0.63544804
1312470755.59635901,-0.81318390,0.25805575,-0.63089871
1312470755.64740920,-0.81315565,0.25641799,-0.63290119
1312470755.69645333,-0.81363362,0.25745505,-0.63387758
1312470755.74834752,-0.81168419,0.26153183,-0.63513982
1312470755.79642129,-0.81262571,0.25794509,-0.63301647
1312470755.84742522,-0.81260026,0.25679302,-0.63273746
1312470755.89636469,-0.81413180,0.25808883,-0.63297009
1312470755.94741416,-0.81167281,0.25921050,-0.63297093
1312470755.99642181,-0.81249225,0.25743440,-0.63313931
1312470756.04848957,-0.81318617,0.25820839,-0.63318527
1312470756.09642243,-0.81239218,0.25716031,-0.63151842
1312470756.15130138,-0.81212646,0.25820339,-0.63379610
1312470756.19643259,-0.81240475,0.25655010,-0.63406861
1312470756.24844575,-0.81287533,0.25781596,-0.63262665
1312470756.29629922,-0.81285822,0.25758249,-0.63464028
1312470756.34844708,-0.81256670,0.25859588,-0.63422775
1312470756.39645100,-0.81494278,0.25641385,-0.63071918
1312470756.44742465,-0.81143528,0.25791508,-0.63146877
1312470756.49645877,-0.81224871,0.25832954,-0.63353527
1312470756.55128407,-0.81153852,0.26050892,-0.63512373
1312470756.59644008,-0.81257188,0.25719473,-0.63448638
1312470756.64741302,-0.81299961,0.25819740,-0.63236785
1312470756.69632292,-0.81196845,0.25768802,-0.63351429
1312470756.74844670,-0.81186867,0.25833097,-0.63405102
1312470756.79536009,-0.81238317,0.25896788,-0.63341343
1312470756.84838104,-0.81275618,0.25705308,-0.63301730
1312470756.89543700,-0.81246591,0.25809145,-0.63489026
1312470756.94445634,-0.81171262,0.25909066,-0.63364446
1312470756.99642491,-0.81184345,0.25707620,-0.63605654
1312470757.04853511,-0.81352878,0.25643998,-0.63453603
1312470757.09535599,-0.81322193,0.25757790,-0.63385469
1312470757.14842892,-0.81209099,0.25771147,-0.63553792
1312470757.19642305,-0.81411558,0.25604624,-0.63295382
1312470757.24844551,-0.81315273,0.25797179,-0.63492906
1312470757.29542947,-0.81251979,0.25782210,-0.63354713
1312470757.34739399,-0.81149179,0.26065218,-0.63660079
1312470757.39637709,-0.81343484,0.25693184,-0.63292116
1312470757.44727612,-0.81344682,0.25754675,-0.63077569
1312470757.49530339,-0.81381208,0.25644475,-0.63468683
1312470757.54728222,-0.81231922,0.25694087,-0.63487315
1312470757.59537077,-0.81235170,0.25603008,-0.63325512
1312470757.64728737,-0.81345731,0.25668123,-0.63332385
1312470757.69636583,-0.81306189,0.25782692,-0.63344407
1312470757.74514961,-0.81232220,0.25834361,-0.63474947
1312470757.79532409,-0.81151909,0.25614658,-0.63307345
1312470757.84442258,-0.81291717,0.25795144,-0.63330221
1312470757.89714813,-0.81361121,0.25668594,-0.63360161
1312470757.94733405,-0.81182981,0.25857848,-0.63337851
1312470757.99643493,-0.81307733,0.25566295,-0.63396639
1312470758.04851866,-0.81240469,0.25756985,-0.63394183
1312470758.09532595,-0.81241161,0.25754642,-0.63179129
1312470758.14736867,-0.81234968,0.25975099,-0.63503045
1312470758.19541168,-0.81316257,0.25639459,-0.63075060
1312470758.24431467,-0.81190717,0.25818616,-0.63243908
1312470758.29533076,-0.81167281,0.25921050,-0.63297093
1312470758.34732556,-0.81333441,0.25981966,-0.62863547
1312470758.38791752,-0.81355661,0.25726336,-0.62809139
1312470758.44730091,-0.81237286,0.25575447,-0.63137227
1312470758.49530673,-0.81306446,0.25841528,-0.62887818
1312470758.55131721,-0.81236631,0.25917011,-0.62857467
1312470758.59536171,-0.81253344,0.25981471,-0.62899244
1312470758.64851403,-0.81453496,0.25613031,-0.62854266
1312470758.69533491,-0.81069899,0.25823072,-0.62605160
1312470758.74843645,-0.81304204,0.25764617,-0.62860221
1312470758.79598069,-0.81315815,0.25802609,-0.62820852
1312470758.83548713,-0.81412196,0.25724792,-0.62610757
1312470758.89621115,-0.81308925,0.25332132,-0.62991673
1312470758.94734716,-0.81229401,0.26020074,-0.62951916
1312470758.99535799,-0.81209105,0.25723013,-0.62652779
1312470759.04844809,-0.81117189,0.25862944,-0.62702292
1312470759.09529829,-0.81290221,0.25647220,-0.62643450
1312470759.14842939,-0.81205428,0.25773296,-0.62585729
1312470759.19541121,-0.81316406,0.25685528,-0.62618369
1312470759.24871421,-0.81369829,0.25675589,-0.62823015
1312470759.29646826,-0.81200343,0.25838530,-0.62720352
1312470759.33630204,-0.81219310,0.25775954,-0.62815076
1312470759.39642191,-0.81240124,0.25535277,-0.62962341
1312470759.43658543,-0.81144685,0.25771561,-0.62488115
1312470759.49637365,-0.81169504,0.25508630,-0.62931174
1312470759.54800415,-0.81173545,0.25825599,-0.62732148
1312470759.58829379,-0.81324762,0.25518945,-0.62550390
1312470759.64741087,-0.81266916,0.25252557,-0.62760127
1312470759.68843460,-0.81321305,0.25686467,-0.62699312
1312470759.75131702,-0.81205982,0.25418967,-0.62865394
1312470759.79643345,-0.81285441,0.25750753,-0.62778378
1312470759.84827566,-0.81381142,0.25573304,-0.62796021
1312470759.89539075,-0.81291538,0.25813180,-0.62644774
1312470759.94731021,-0.81061143,0.25836614,-0.62685412
1312470759.99642134,-0.81279629,0.25634921,-0.62696517
1312470760.04846787,-0.81240290,0.25775024,-0.62708741
1312470760.08445072,-0.81146318,0.25771874,-0.62515092
1312470760.14741373,-0.81267321,0.25303620,-0.62760532
1312470760.19641972,-0.81387144,0.25918618,-0.62852728
1312470760.24429154,-0.81214589,0.25810817,-0.62505889
1312470760.28767872,-0.81209517,0.25672105,-0.62665862
1312470760.34439564,-0.81245399,0.25301898,-0.62624830
1312470760.38740706,-0.81198704,0.25542566,-0.62502956
1312470760.44830489,-0.81169796,0.25353250,-0.62728387
1312470760.49539614,-0.81219900,0.25760847,-0.62599915
1312470760.54726863,-0.81054336,0.26082447,-0.62996042
1312470760.59540105,-0.81109452,0.25504553,-0.62618494
1312470760.64437294,-0.81240708,0.25622141,-0.62734503
1312470760.68757010,-0.81168038,0.25748065,-0.62650597
1312470760.74729419,-0.81150359,0.25535405,-0.63064694
1312470760.79642153,-0.81170583,0.25863272,-0.62678492
1312470760.84732485,-0.81240505,0.25596610,-0.62734300
1312470760.88442731,-0.81338233,0.25674486,-0.62753969
1312470760.94431734,-0.81230545,0.25253013,-0.62838680
1312470760.99533081,-0.81067801,0.25840363,-0.63021886
1312470761.04852200,-0.81173575,0.25713357,-0.62973273
1312470761.08826780,-0.81299812,0.25725538,-0.62792462
1312470761.14730859,-0.81197339,0.25241330,-0.62971103
1312470761.19642234,-0.81255496,0.25444046,-0.62774348
1312470761.24397635,-0.81417018,0.25702694,-0.62920046
1312470761.29540896,-0.81116408,0.25648573,-0.62942600
1312470761.34743595,-0.81117028,0.25918847,-0.63146305
1312470761.38728595,-0.81392366,0.25651935,-0.62972009
1312470761.43630123,-0.81269103,0.25398135,-0.63231832
1312470761.48730946,-0.81148034,0.25537434,-0.63252771
1312470761.54741454,-0.81079125,0.25534135,-0.63020241
1312470761.58886909,-0.81142592,0.25686881,-0.62917519
1312470761.64742374,-0.81294692,0.25553524,-0.63409233
1312470761.68831587,-0.81289250,0.25702968,-0.63073975
1312470761.74728751,-0.81252998,0.25308299,-0.63203341
1312470761.78742814,-0.81163806,0.25996864,-0.63230246
1312470761.83539653,-0.81312191,0.25332758,-0.63045633
1312470761.88824797,-0.81353486,0.25322971,-0.63276470
1312470761.94728947,-0.81190217,0.25255185,-0.63078332
1312470761.98827791,-0.81258875,0.25651115,-0.63031507
1312470762.04850030,-0.81216115,0.25346899,-0.63268715
1312470762.08844543,-0.81206506,0.25574502,-0.63081676
1312470762.13546562,-0.81163949,0.25295818,-0.63319087
1312470762.18734145,-0.81205207,0.25500247,-0.63296121
1312470762.23639822,-0.81202966,0.25423336,-0.63268530
1312470762.28634882,-0.81340843,0.25463238,-0.63276792
1312470762.33662319,-0.81182373,0.25383627,-0.63159502
1312470762.38771224,-0.81208569,0.25615612,-0.63337511
1312470762.44836164,-0.81209785,0.25371182,-0.63160992
1312470762.48838830,-0.81261307,0.25559878,-0.62856209
1312470762.53530240,-0.81141824,0.25268564,-0.63183177
1312470762.58731294,-0.81185049,0.25399360,-0.63428622
1312470762.63580894,-0.81269211,0.25206956,-0.63257289
1312470762.68774891,-0.81149167,0.25371942,-0.63291919
1312470762.74519491,-0.81215584,0.25293335,-0.63039762
1312470762.78741097,-0.81247646,0.25674456,-0.62842834
1312470762.83638072,-0.81245041,0.25230294,-0.63081312
1312470762.88730145,-0.81212026,0.25448090,-0.63188583
1312470762.93632174,-0.81159943,0.25318071,-0.63023287
1312470762.98447895,-0.81117058,0.25408983,-0.63209689
1312470763.03641248,-0.81208766,0.25345492,-0.63147295
1312470763.08446050,-0.81069565,0.25343576,-0.63112354
1312470763.13547993,-0.81221300,0.25294432,-0.63134193
1312470763.18431187,-0.81144094,0.25630856,-0.63629633
1312470763.24730825,-0.81197268,0.25513947,-0.63389862
1312470763.28441906,-0.81121403,0.25764251,-0.63010973
1312470763.34728909,-0.81313318,0.25269240,-0.63072109
1312470763.38442373,-0.81163889,0.25917926,-0.63014579
1312470763.43676353,-0.81276739,0.25244164,-0.63150460
1312470763.48429322,-0.81160152,0.25639254,-0.63213909
1312470763.53616881,-0.81178588,0.25523117,-0.63079673
1312470763.58430433,-0.81141412,0.25717095,-0.63347834
1312470763.63610220,-0.81220996,0.25256133,-0.63133889
1312470763.68438816,-0.81184113,0.25294733,-0.63199264
1312470763.73645854,-0.81262982,0.25244004,-0.63149667
1312470763.78520179,-0.81131130,0.25641119,-0.63413882
1312470763.83637547,-0.81318414,0.25397682,-0.63140583
1312470763.88778615,-0.81231785,0.24998316,-0.62890613
1312470763.94728613,-0.81046110,0.25252333,-0.62962449
1312470763.98438382,-0.81341815,0.25509462,-0.62833595
1312470764.03629136,-0.81144893,0.25539306,-0.63427359
1312470764.09631157,-0.81123656,0.25239590,-0.62886178
1312470764.13644528,-0.81226784,0.25881833,-0.63152367
1312470764.18442988,-0.81347674,0.25604761,-0.63372350
1312470764.24430466,-0.81011975,0.25431672,-0.63055921
1312470764.28792500,-0.81266201,0.25662789,-0.62924474
1312470764.33532453,-0.81010348,0.25329387,-0.63041615
1312470764.39641881,-0.81194639,0.25579649,-0.63564956
1312470764.43524623,-0.81305659,0.25729132,-0.63115448
1312470764.48843503,-0.81219149,0.25434235,-0.63081348
1312470764.54735875,-0.81053042,0.25508595,-0.63045430
1312470764.58842540,-0.81227976,0.25545698,-0.62760079
1312470764.63640690,-0.81264901,0.25190911,-0.62961185
1312470764.69643760,-0.81126511,0.25291124,-0.62927055
1312470764.73641491,-0.81268340,0.25828907,-0.62939292
1312470764.78741550,-0.81327188,0.25475845,-0.63276100
1312470764.84843922,-0.80997127,0.25382790,-0.63269776
1312470764.88801241,-0.81187308,0.25723788,-0.62745625
1312470764.93649244,-0.81185931,0.25228873,-0.63010675
1312470764.99532270,-0.81172395,0.25345948,-0.63225853
1312470765.03635216,-0.81251341,0.25817853,-0.63112980
1312470765.08777547,-0.81233102,0.25164276,-0.62891936
1312470765.14732814,-0.81215286,0.25153065,-0.63052130
1312470765.18741679,-0.81145132,0.25506437,-0.62754995
1312470765.23726892,-0.81212318,0.25292712,-0.62985796
1312470765.29531956,-0.81147432,0.25358865,-0.63264835
1312470765.33638215,-0.81111640,0.25945786,-0.63280624
1312470765.38462782,-0.81087291,0.25535700,-0.63155150
1312470765.44843006,-0.81307113,0.25296018,-0.63192934
1312470765.48739219,-0.81334609,0.25602257,-0.63156497
1312470765.53658056,-0.81318313,0.25384918,-0.63140482
1312470765.59606266,-0.81128663,0.25548947,-0.63157642
1312470765.63638306,-0.81172353,0.25662136,-0.62959379
1312470765.68742609,-0.81236494,0.25167400,-0.63174444
1312470765.74896145,-0.81043285,0.25190532,-0.63150018
1312470765.78450346,-0.81069338,0.25725937,-0.63061446
1312470765.83543181,-0.81331474,0.25104535,-0.63166016
1312470765.89638758,-0.81337357,0.25345376,-0.63006854
1312470765.93676949,-0.81012464,0.25903398,-0.63005722
1312470765.98446131,-0.81140119,0.25540867,-0.63574958
1312470766.04788446,-0.81285828,0.25258651,-0.63298965
1312470766.08442545,-0.81214947,0.25726604,-0.62975764
1312470766.14441824,-0.81207341,0.25268739,-0.63133198
1312470766.19532084,-0.81346512,0.25484869,-0.62914336
1312470766.23640347,-0.81269282,0.25831562,-0.63181329
1312470766.29635835,-0.81276554,0.25412309,-0.63353354
1312470766.34441423,-0.81082070,0.25802380,-0.63035870
1312470766.39539170,-0.81299537,0.25676972,-0.63020605
1312470766.44832158,-0.81316054,0.25613925,-0.63074857
1312470766.49635696,-0.81205803,0.25780788,-0.63271379
1312470766.54428768,-0.81187344,0.25907198,-0.63177162
1312470766.59532809,-0.81259620,0.25628236,-0.63273340
1312470766.64728570,-0.81306058,0.25484544,-0.62925440
1312470766.69531131,-0.81228399,0.25688466,-0.62976253
1312470766.74732566,-0.81283957,0.25844643,-0.63195717
1312470766.79533577,-0.81226671,0.25573415,-0.62961847
1312470766.84434223,-0.81052721,0.25776216,-0.63007092
1312470766.89532399,-0.81326437,0.25702667,-0.63008910
1312470766.94431233,-0.81203651,0.25920591,-0.63218534
1312470766.99623656,-0.81095415,0.25853449,-0.63023585
1312470767.04852057,-0.81226575,0.25856301,-0.63152164
1312470767.09640861,-0.81200075,0.25586018,-0.62973851
1312470767.14443183,-0.81048143,0.25905281,-0.63142222
1312470767.19541335,-0.81255412,0.25522983,-0.62990016
1312470767.24741769,-0.81380856,0.25626713,-0.63011485
1312470767.29630709,-0.81166041,0.25778124,-0.63067424
1312470767.34727073,-0.81112534,0.25968975,-0.63065767
1312470767.39631081,-0.80989349,0.25738209,-0.63097245
1312470767.44434857,-0.81271720,0.25638351,-0.63018709
1312470767.49642611,-0.81334394,0.25780672,-0.63130939
1312470767.54741430,-0.81146157,0.25827777,-0.62959111
1312470767.59643507,-0.81223506,0.25585556,-0.62907988
1312470767.64844966,-0.81390959,0.25666887,-0.63173681
1312470767.69530749,-0.81192929,0.25610143,-0.62852633
1312470767.74731255,-0.80898845,0.26056868,-0.63148183
1312470767.79530931,-0.81297195,0.25587296,-0.62992913
